Ariane H10 - Orbit

View from above orbital plane
View from above orbital plane
View from above satellite
View from above satellite

Ground track
Ground track

The orbit data is extracted from the following two-line orbital elements,

1 21815U 91084C   13168.15695147  .00000173  00000-0  59510-3 0  2948
2 21815 004.3082 327.1386 7209438 319.7816 351.2951 02.30405660178529
Epoch (UTC): 17 June 2013 03:46:00
Eccentricity: 0.7209438
inclination: 4.3082°
perigee height: 379 km
apogee height: 35293 km
right ascension of ascending node: 327.1386°
argument of perigee: 319.7816°
revolutions per day: 2.30405660
mean anomaly at epoch: 351.2951°
orbit number at epoch: 17852

The dashed part of the orbit path shows where the satellite is in the earth's shadow,  

Developed and maintained by Chris Peat, Heavens-Above GmbH. Please read the updated FAQ before sending e-mail. Imprint. DLR